[[{"header":{"parameterUnit":"m.s-1","parameterCategory":1,"la1":30.2991,"la2":30.254,"lo1":-89.0895,"lo2":-89.0444,"dy":0.0017,"dx":0.0017,"nx":28,"ny":28,"refTime":"2025-03-20T21:00:00:Z","depth":0,"parameterNumber":2,"parameterNumberName":"U-component_of_WINDS"},"data":[0,0,0,0,0,0,0,0,0,0,0,0,0,0,0,0,0,0,0,0,0,0,0,0,0,0,0,0,0,0,0,0,0,0,0,0,0,0,0,0,0,0,0,0,0,0,0,0,0,0,0,0,0,0,0,0,0,0,1.2635,1.2636,0,1.2728,1.2729,1.273,1.2755,1.2755,1.2754,1.2754,1.2847,1.285,1.2853,0,0,0,0,0,0,0,0,0,0,0,0,0,1.2475,1.2477,1.2635,1.2636,1.2637,1.2728,1.2729,1.273,1.2755,1.2755,1.2754,1.2753,1.2846,1.285,1.2853,0,0,0,0,0,0,0,0,0,0,0,0,0,1.2554,1.2478,1.2634,1.266,1.2664,1.2728,1.2729,1.2731,1.2756,1.2755,1.2754,1.2753,1.2845,1.2849,1.2854,1.2898,0,0,1.2867,1.2869,0,0,0,0,0,0,0,0,1.2549,1.2559,1.2655,1.2659,1.2663,1.2729,1.2707,1.2787,1.2756,1.2721,1.2754,1.2753,1.2808,1.2816,1.2835,1.2902,1.2906,1.2868,1.2871,1.2872,1.2874,0,0,0,0,0,0,0,1.2544,1.2555,1.2672,1.2657,1.2661,1.2666,1.2677,1.2722,1.2768,1.2724,1.2726,1.2737,1.281,1.2831,1.2837,1.2908,1.2868,1.2872,1.2874,1.2876,1.3013,1.3014,0,0,0,0,0,0,1.2534,1.2551,1.2669,1.2674,1.2603,1.267,1.2681,1.2709,1.2767,1.2776,1.2737,1.2737,1.2823,1.2832,1.2841,1.2895,1.2872,1.2877,1.2879,1.3013,1.3014,1.3015,0,0,0,0,0,0,1.253,1.2544,1.2665,1.2613,1.2629,1.2674,1.2704,1.2711,1.2732,1.2778,1.2786,1.275,1.2823,1.2834,1.2883,1.2899,1.2879,1.2883,1.3011,1.3013,1.3014,1.3004,0,0,0,0,0,0,1.2526,1.2543,1.2561,1.2613,1.2632,1.2707,1.2705,1.2713,1.2739,1.2741,1.2792,1.2799,1.2823,1.2876,1.2888,1.2904,1.2886,1.301,1.3012,1.3014,1.3004,1.3005,1.3007,0,0,0,0,0,1.252,1.2554,1.2562,1.2576,1.2655,1.2707,1.2718,1.2745,1.2741,1.2758,1.2788,1.2798,1.2895,1.2881,1.2894,1.2912,1.3009,1.3012,1.3014,1.3003,1.3005,1.3007,0,0,0,0,0,0,1.2502,1.2562,1.2571,1.2623,1.266,1.2712,1.2735,1.2747,1.2785,1.2785,1.2816,1.2828,1.2874,1.2898,1.2881,1.2957,1.2952,1.2957,1.294,1.2942,1.2944,1.2937,1.289,0,0,0,0,0,1.2504,1.2543,1.2592,1.2634,1.2652,1.269,1.2714,1.2732,1.2771,1.2787,1.282,1.2856,1.2895,1.292,1.2959,1.3007,1.3018,1.3026,1.3028,1.3029,1.3033,1.3059,1.3062,1.3022,1.3022,1.3022,0,0,1.2509,1.2546,1.2569,1.2631,1.2662,1.27,1.2703,1.2743,1.2771,1.2792,1.284,1.2866,1.2909,1.2957,1.298,1.2979,1.3046,1.3032,1.3032,1.3035,1.3061,1.3065,1.3068,1.3023,1.3023,1.3023,0,0,1.2537,1.257,1.2607,1.2638,1.2684,1.2709,1.2718,1.2768,1.2786,1.2834,1.2851,1.2884,1.295,1.298,1.3004,1.3041,1.3051,1.3053,1.3061,1.3086,1.309,1.3093,1.3105,1.3109,1.3057,1.3057,1.3057,0,1.2537,1.2595,1.2625,1.2664,1.269,1.2712,1.2749,1.2777,1.2833,1.285,1.2848,1.2931,1.2962,1.3017,1.3026,1.3045,1.3055,1.3047,1.3087,1.309,1.3093,1.3105,1.311,1.3056,1.3056,1.3056,1.3056,0,1.2592,1.2632,1.2657,1.2711,1.274,1.2778,1.2812,1.2838,1.2853,1.2878,1.2926,1.2963,1.3009,1.3023,1.3038,1.308,1.3078,1.3081,1.3076,1.3097,1.3108,1.3113,1.3056,1.3056,1.3056,1.3056,0,0,1.2611,1.2681,1.2689,1.2714,1.2766,1.2797,1.2835,1.288,1.2901,1.2939,1.2971,1.3026,1.3029,1.3056,1.3074,1.3096,1.3122,1.3097,1.3098,1.3099,1.3169,1.3165,1.317,1.3129,1.313,1.3131,1.3165,0,1.2645,1.2715,1.2742,1.2799,1.2835,1.2856,1.2889,1.2924,1.2947,1.2981,1.3007,1.3045,1.3047,1.3063,1.3086,1.3114,1.3136,1.3112,1.3158,1.3159,1.3146,1.3176,1.3173,1.3203,1.3169,1.317,1.3171,0,1.2694,1.2732,1.2793,1.2839,1.2856,1.2885,1.2928,1.296,1.3,1.3015,1.3045,1.3062,1.3101,1.3094,1.3148,1.3131,1.3151,1.3168,1.3169,1.3174,1.3166,1.3181,1.3213,1.3217,1.3179,1.3178,1.3177,0,1.27,1.2767,1.2812,1.2832,1.2888,1.2908,1.2932,1.2971,1.2995,1.3033,1.3049,1.309,1.3112,1.3142,1.3169,1.3162,1.322,1.3216,1.3233,1.3232,1.3244,1.3243,1.3279,1.3258,1.3258,1.3258,1.3258,0,1.2734,1.277,1.2815,1.2842,1.2883,1.2913,1.2951,1.2976,1.301,1.3042,1.3062,1.3091,1.3125,1.3158,1.3179,1.3219,1.3229,1.3242,1.3247,1.324,1.3238,1.3253,1.3252,1.3259,1.3259,1.3259,1.3259,0,1.2748,1.278,1.283,1.2878,1.2891,1.2919,1.296,1.2986,1.3011,1.305,1.3061,1.3099,1.3139,1.3169,1.322,1.3235,1.3277,1.3283,1.3264,1.3266,1.3281,1.3279,1.3328,1.3335,1.331,1.331,1.3311,0,1.2768,1.2796,1.2847,1.287,1.2894,1.2931,1.2956,1.2986,1.3012,1.3058,1.3079,1.312,1.3154,1.3216,1.3248,1.3287,1.3293,1.3308,1.3299,1.329,1.3292,1.329,1.3292,1.3308,1.3309,1.3309,1.3309,0,1.2798,1.2812,1.2849,1.289,1.292,1.2954,1.2989,1.3006,1.3042,1.307,1.3111,1.3137,1.3189,1.3229,1.3271,1.3295,1.3307,1.3311,1.3317,1.331,1.3297,1.3303,1.3266,1.331,1.331,1.331,1.331,1.331,1.2815,1.284,1.288,1.292,1.2949,1.298,1.3007,1.3035,1.307,1.3115,1.313,1.3172,1.321,1.3267,1.3291,1.3323,1.3324,1.3332,1.3334,1.3336,1.3335,1.3292,1.3331,1.3331,1.3331,1.3331,1.3331,0,1.2845,1.2872,1.2908,1.2955,1.2986,1.2996,1.3034,1.3059,1.3096,1.313,1.3163,1.3209,1.3248,1.3282,1.3322,1.3341,1.3348,1.3351,1.3349,1.3354,1.3333,1.3323,1.3345,1.3345,1.3345,1.3345,1.3345,1.3345,1.2864,1.2907,1.2926,1.2983,1.3009,1.3051,1.3072,1.31,1.3127,1.3178,1.3211,1.3233,1.3267,1.3309,1.3345,1.3354,1.3367,1.3368,1.3378,1.3358,1.3356,1.3354,1.3345,1.3371,1.3371,1.3397,1.3397,1.3397]},{"header":{"parameterUnit":"m.s-1","parameterCategory":1,"la1":30.2991,"la2":30.254,"lo1":-89.0895,"lo2":-89.0444,"dy":0.0017,"dx":0.0017,"nx":28,"ny":28,"refTime":"2025-03-20T21:00:00:Z","depth":0,"parameterNumber":3,"parameterNumberName":"V-component_of_WINDS"},"data":[0,0,0,0,0,0,0,0,0,0,0,0,0,0,0,0,0,0,0,0,0,0,0,0,0,0,0,0,0,0,0,0,0,0,0,0,0,0,0,0,0,0,0,0,0,0,0,0,0,0,0,0,0,0,0,0,0,0,3.7623,3.7623,0,3.7597,3.7597,3.7597,3.7541,3.754,3.7538,3.7537,3.7512,3.7513,3.7513,0,0,0,0,0,0,0,0,0,0,0,0,0,3.7624,3.7624,3.7623,3.7623,3.7622,3.7598,3.7597,3.7597,3.7541,3.754,3.7538,3.7537,3.7512,3.7513,3.7513,0,0,0,0,0,0,0,0,0,0,0,0,0,3.7614,3.7624,3.7623,3.7591,3.7588,3.7598,3.7597,3.7597,3.7541,3.7539,3.7538,3.7536,3.7512,3.7513,3.7513,3.7552,0,0,3.7515,3.7515,0,0,0,0,0,0,0,0,3.7614,3.7614,3.7596,3.7594,3.759,3.757,3.7588,3.7582,3.7542,3.7559,3.7537,3.7535,3.7533,3.7532,3.7531,3.755,3.7549,3.7515,3.7516,3.7516,3.7516,0,0,0,0,0,0,0,3.7615,3.7614,3.7613,3.7596,3.7592,3.7579,3.7575,3.7587,3.7556,3.7557,3.7553,3.7551,3.7531,3.7531,3.753,3.7549,3.7515,3.7516,3.7516,3.7516,3.7598,3.7599,0,0,0,0,0,0,3.762,3.7615,3.7614,3.7612,3.7598,3.758,3.7576,3.7579,3.7556,3.7551,3.7553,3.7548,3.753,3.7529,3.7529,3.7571,3.7516,3.7516,3.7517,3.7596,3.7598,3.76,0,0,0,0,0,0,3.762,3.7621,3.7615,3.7613,3.7611,3.7582,3.7585,3.7579,3.7578,3.7552,3.7546,3.7557,3.7529,3.7528,3.7546,3.757,3.7517,3.7517,3.7594,3.7597,3.7599,3.7657,0,0,0,0,0,0,3.7621,3.7621,3.7635,3.7613,3.7611,3.7632,3.7586,3.758,3.7579,3.7574,3.7555,3.7551,3.7527,3.7545,3.7547,3.757,3.7518,3.7592,3.7595,3.7598,3.7653,3.7661,3.7669,0,0,0,0,0,3.7621,3.7653,3.7636,3.7636,3.7628,3.7634,3.7632,3.7605,3.7581,3.7595,3.7579,3.7551,3.7567,3.7548,3.7549,3.7572,3.759,3.7594,3.7598,3.7649,3.766,3.7669,0,0,0,0,0,0,3.7678,3.7649,3.763,3.7656,3.7648,3.7624,3.7641,3.7617,3.7615,3.761,3.7577,3.7573,3.7595,3.7586,3.7565,3.7608,3.7574,3.7579,3.7613,3.7623,3.763,3.7632,3.7518,0,0,0,0,0,3.7694,3.7701,3.7675,3.77,3.7697,3.767,3.7671,3.7651,3.7641,3.7637,3.7622,3.7614,3.7616,3.7619,3.7621,3.7652,3.7646,3.7668,3.7676,3.7683,3.7687,3.7701,3.7711,3.7613,3.7613,3.7613,0,0,3.7726,3.7711,3.7718,3.7712,3.7703,3.771,3.7667,3.7678,3.7683,3.7639,3.7654,3.7643,3.7632,3.7656,3.7666,3.7649,3.7713,3.7688,3.7693,3.7694,3.7707,3.7716,3.7724,3.7616,3.7616,3.7615,0,0,3.7789,3.7779,3.7798,3.779,3.7777,3.7759,3.7764,3.7743,3.7734,3.7749,3.7716,3.7722,3.7729,3.7721,3.7719,3.7779,3.7753,3.7781,3.7821,3.7836,3.7844,3.785,3.7871,3.7879,3.7785,3.7785,3.7785,0,3.7831,3.7841,3.7811,3.7823,3.7821,3.7782,3.7801,3.7795,3.7783,3.7783,3.7764,3.777,3.776,3.7781,3.7796,3.7796,3.78,3.7782,3.7845,3.7851,3.7857,3.7876,3.7884,3.7788,3.7788,3.7787,3.7787,0,3.7893,3.79,3.7918,3.7906,3.7907,3.7923,3.7895,3.7899,3.7879,3.7863,3.7879,3.7865,3.7862,3.7866,3.7847,3.7886,3.7875,3.7851,3.7816,3.787,3.7888,3.7895,3.7793,3.7792,3.7791,3.779,0,0,3.799,3.7962,3.7969,3.7963,3.7946,3.7951,3.7966,3.7963,3.7966,3.796,3.797,3.7977,3.7954,3.7951,3.7931,3.7944,3.7992,3.7918,3.7917,3.7931,3.8032,3.8049,3.8058,3.7975,3.7976,3.7977,3.8032,0,3.8047,3.8069,3.8043,3.807,3.8076,3.8039,3.8051,3.8042,3.8028,3.8031,3.8015,3.802,3.7991,3.7988,3.8,3.7983,3.8011,3.7979,3.7984,3.7985,3.7987,3.8067,3.8086,3.8138,3.8039,3.804,3.8041,0,3.8117,3.8113,3.8141,3.8122,3.8123,3.8135,3.813,3.8134,3.8123,3.8111,3.8108,3.8084,3.8096,3.8064,3.808,3.8059,3.8059,3.8052,3.8053,3.8051,3.8015,3.8067,3.8154,3.8162,3.8052,3.8051,3.805,0,3.8184,3.8186,3.8202,3.8199,3.8177,3.8186,3.8177,3.8164,3.8164,3.8161,3.816,3.8158,3.8157,3.8156,3.8131,3.811,3.815,3.8116,3.8141,3.8141,3.815,3.8149,3.8238,3.8153,3.8153,3.8152,3.8152,0,3.825,3.8268,3.8232,3.8242,3.8261,3.8232,3.8252,3.8239,3.8228,3.8235,3.8204,3.8211,3.8179,3.8183,3.8165,3.8181,3.8181,3.8171,3.8166,3.8173,3.8174,3.8172,3.8168,3.8154,3.8154,3.8154,3.8153,0,3.8327,3.8303,3.8319,3.8297,3.8292,3.8307,3.8288,3.8297,3.8281,3.829,3.8291,3.8265,3.8268,3.8244,3.8243,3.823,3.8255,3.8244,3.8258,3.8254,3.828,3.8277,3.8369,3.8379,3.8289,3.829,3.8291,0,3.837,3.8383,3.8362,3.8365,3.8357,3.8362,3.8361,3.8333,3.8334,3.8322,3.8332,3.8333,3.8331,3.8338,3.832,3.8319,3.8306,3.8339,3.8306,3.8313,3.8305,3.8304,3.8305,3.8345,3.8346,3.8347,3.8348,0,3.8449,3.8436,3.8437,3.8433,3.8434,3.843,3.8423,3.8427,3.8396,3.8399,3.8402,3.8401,3.8399,3.84,3.8395,3.8386,3.8362,3.8359,3.8364,3.8371,3.8378,3.8374,3.8275,3.8356,3.8355,3.8355,3.8354,3.8354,3.8509,3.8518,3.8505,3.8507,3.8499,3.8494,3.8501,3.8485,3.8487,3.8483,3.8467,3.8472,3.8461,3.8452,3.8445,3.8449,3.8434,3.8442,3.8444,3.8446,3.845,3.8379,3.8448,3.8448,3.8448,3.8448,3.8447,0,3.8585,3.8574,3.8576,3.8568,3.857,3.8547,3.8539,3.8541,3.8547,3.8538,3.8537,3.854,3.8541,3.8522,3.8521,3.8527,3.8516,3.8528,3.8526,3.8524,3.8464,3.8459,3.8537,3.8537,3.8537,3.8537,3.8537,3.8537,3.8624,3.8639,3.8625,3.8636,3.8626,3.863,3.8628,3.8623,3.8616,3.862,3.862,3.8608,3.8596,3.8593,3.8592,3.8587,3.8587,3.8603,3.8593,3.8537,3.8529,3.852,3.8515,3.8603,3.8603,3.8653,3.8653,3.8654]}]]